Zurück zum Katalog

ANIK A1

TELESAT 1

AktivKommunikationGEO
NORAD 6278·PAYLOAD·🇨🇦 Canada

Gestartet Nov 10, 1972 von Cape Canaveral Space Force Station

Loading…

TLE

AktuellSource: Space-Track

Epoche: Sep 14, 2026, 13:20 UTC

1 06278U 72090A   26257.55590414 -.00000001  00000-0  00000-0 0  9998
2 06278   5.9932 292.2267 0014632 205.0680 319.1398  0.98825709119935

Verfolge ANIK A1 in Echtzeit mit AllMySat

Download on the App Store